When you browse on this site, cookies collect data to enhance your experience and personalize the content and advertising you see.
Visit our Privacy Policy to learn more. By continuing to use the site, you agree to this use of cookies and data.
  • In Romania
  • List of Countries
  • For 7 days
  • Water Temperature
  • Satellite Maps
  • Weather Map
  • Weather Widgets
  • user-avatar
    Login

    Hourly Weather Annaba

    Today, 17 June, Monday

    Time Temperature Precipitation Wind Pressure Humidity
    00:00 +19°C° 0 mm 0 mps 760 mmHg 86%
    01:00 +19°C° 0 mm 0 mps 759 mmHg 89%
    02:00 +19°C° 0.1 mm 0 mps 759 mmHg 89%
    03:00 +21°C° 0.1 mm 1 mps 759 mmHg 90%
    04:00 +21°C° 0.1 mm 1 mps 759 mmHg 90%
    05:00 +22°C° 0.1 mm 1 mps 759 mmHg 88%
    06:00 +22°C° 0.1 mm 1 mps 760 mmHg 86%
    07:00 +22°C° 0 mm 1 mps 760 mmHg 84%
    08:00 +23°C° 0.1 mm 1 mps 760 mmHg 78%
    09:00 +24°C° 0.1 mm 1 mps 760 mmHg 71%
    10:00 +25°C° 0.1 mm 1 mps 760 mmHg 65%
    11:00 +26°C° 0 mm 1 mps 760 mmHg 62%
    12:00 +26°C° 0 mm 2 mps 760 mmHg 58%
    13:00 +27°C° 0 mm 3 mps 759 mmHg 55%
    14:00 +27°C° 0.2 mm 3 mps 759 mmHg 56%
    15:00 +26°C° 0.2 mm 3 mps 759 mmHg 56%
    16:00 +26°C° 0.2 mm 3 mps 759 mmHg 57%
    17:00 +25°C° 0 mm 2 mps 759 mmHg 58%
    18:00 +25°C° 0 mm 2 mps 759 mmHg 59%
    19:00 +24°C° 0 mm 1 mps 759 mmHg 60%
    20:00 +23°C° 0 mm 1 mps 760 mmHg 65%
    21:00 +22°C° 0 mm 1 mps 760 mmHg 69%
    22:00 +19°C° 0 mm 0 mps 760 mmHg 74%
    23:00 +18°C° 0 mm 0 mps 760 mmHg 73%

    Tomorrow, 18 June, Tuesday

    Time Temperature Precipitation Wind Pressure Humidity
    00:00 +18°C° 0 mm 0 mps 760 mmHg 73%
    01:00 +20°C° 0 mm 1 mps 760 mmHg 72%
    02:00 +20°C° 0 mm 1 mps 760 mmHg 72%
    03:00 +20°C° 0 mm 1 mps 760 mmHg 72%
    04:00 +19°C° 0 mm 1 mps 759 mmHg 72%
    05:00 +21°C° 0 mm 1 mps 759 mmHg 67%
    06:00 +22°C° 0 mm 1 mps 760 mmHg 63%
    07:00 +23°C° 0 mm 1 mps 760 mmHg 59%
    08:00 +25°C° 0 mm 1 mps 760 mmHg 52%
    09:00 +27°C° 0 mm 1 mps 760 mmHg 45%
    10:00 +28°C° 0 mm 1 mps 760 mmHg 39%
    11:00 +29°C° 0 mm 2 mps 760 mmHg 39%
    12:00 +29°C° 0 mm 3 mps 760 mmHg 39%
    13:00 +30°C° 0 mm 3 mps 759 mmHg 39%
    14:00 +29°C° 0 mm 3 mps 759 mmHg 42%
    15:00 +29°C° 0 mm 3 mps 759 mmHg 44%
    16:00 +29°C° 0 mm 4 mps 758 mmHg 46%
    17:00 +28°C° 0 mm 3 mps 758 mmHg 51%
    18:00 +26°C° 0 mm 3 mps 759 mmHg 56%
    19:00 +25°C° 0 mm 2 mps 759 mmHg 62%
    20:00 +24°C° 0 mm 2 mps 759 mmHg 65%
    21:00 +23°C° 0 mm 1 mps 759 mmHg 68%
    22:00 +22°C° 0 mm 1 mps 760 mmHg 72%
    23:00 +22°C° 0 mm 1 mps 760 mmHg 71%

    Day after tomorrow, 19 June, Wednesday

    Time Temperature Precipitation Wind Pressure Humidity
    00:00 +22°C° 0 mm 1 mps 759 mmHg 70%
    01:00 +22°C° 0 mm 1 mps 759 mmHg 69%
    02:00 +22°C° 0 mm 1 mps 759 mmHg 68%
    03:00 +22°C° 0 mm 1 mps 759 mmHg 66%
    04:00 +21°C° 0 mm 2 mps 758 mmHg 65%
    05:00 +23°C° 0 mm 2 mps 758 mmHg 61%
    06:00 +24°C° 0 mm 2 mps 758 mmHg 58%
    07:00 +25°C° 0 mm 2 mps 758 mmHg 54%
    08:00 +27°C° 0 mm 2 mps 758 mmHg 50%
    09:00 +29°C° 0 mm 2 mps 759 mmHg 45%
    10:00 +30°C° 0 mm 3 mps 759 mmHg 41%
    11:00 +31°C° 0 mm 3 mps 759 mmHg 40%
    12:00 +31°C° 0 mm 3 mps 759 mmHg 39%
    13:00 +33°C° 0 mm 4 mps 758 mmHg 38%
    14:00 +32°C° 0 mm 4 mps 758 mmHg 38%
    15:00 +32°C° 0 mm 4 mps 758 mmHg 38%
    16:00 +32°C° 0 mm 4 mps 758 mmHg 38%
    17:00 +30°C° 0 mm 3 mps 758 mmHg 41%
    18:00 +28°C° 0 mm 3 mps 758 mmHg 44%
    19:00 +27°C° 0 mm 2 mps 758 mmHg 47%
    20:00 +26°C° 0 mm 2 mps 759 mmHg 49%
    21:00 +25°C° 0 mm 1 mps 759 mmHg 51%
    22:00 +24°C° 0 mm 1 mps 759 mmHg 53%
    23:00 +25°C° 0 mm 1 mps 759 mmHg 52%

    20 June, Thursday

    Time Temperature Precipitation Wind Pressure Humidity
    00:00 +25°C° 0 mm 1 mps 758 mmHg 51%
    01:00 +25°C° 0 mm 1 mps 758 mmHg 50%
    02:00 +25°C° 0 mm 1 mps 758 mmHg 51%
    03:00 +25°C° 0 mm 1 mps 757 mmHg 51%
    04:00 +25°C° 0 mm 2 mps 757 mmHg 51%
    05:00 +26°C° 0 mm 1 mps 757 mmHg 50%
    06:00 +27°C° 0 mm 1 mps 757 mmHg 48%
    07:00 +28°C° 0 mm 1 mps 757 mmHg 47%
    08:00 +30°C° 0 mm 1 mps 757 mmHg 43%
    09:00 +32°C° 0 mm 2 mps 758 mmHg 39%
    10:00 +36°C° 0 mm 3 mps 758 mmHg 34%
    11:00 +35°C° 0 mm 3 mps 758 mmHg 35%
    12:00 +35°C° 0 mm 3 mps 757 mmHg 35%
    13:00 +35°C° 0 mm 3 mps 757 mmHg 36%
    14:00 +35°C° 0 mm 3 mps 757 mmHg 36%
    15:00 +35°C° 0 mm 3 mps 757 mmHg 37%
    16:00 +35°C° 0 mm 2 mps 757 mmHg 37%
    17:00 +32°C° 0.1 mm 2 mps 757 mmHg 43%
    18:00 +30°C° 0.1 mm 2 mps 757 mmHg 48%
    19:00 +28°C° 0.1 mm 2 mps 757 mmHg 54%
    20:00 +27°C° 0 mm 2 mps 758 mmHg 58%
    21:00 +26°C° 0 mm 2 mps 758 mmHg 61%
    22:00 +25°C° 0 mm 2 mps 758 mmHg 65%
    23:00 +25°C° 0 mm 2 mps 758 mmHg 65%

    21 June, Friday

    Time Temperature Precipitation Wind Pressure Humidity
    00:00 +25°C° 0 mm 1 mps 757 mmHg 66%
    01:00 +24°C° 0 mm 1 mps 757 mmHg 66%
    02:00 +24°C° 0 mm 1 mps 757 mmHg 68%
    03:00 +24°C° 0 mm 1 mps 757 mmHg 70%
    04:00 +23°C° 0 mm 1 mps 756 mmHg 72%
    05:00 +24°C° 0 mm 1 mps 757 mmHg 67%
    06:00 +26°C° 0 mm 2 mps 757 mmHg 62%
    07:00 +27°C° 0 mm 2 mps 757 mmHg 57%
    08:00 +28°C° 0 mm 2 mps 757 mmHg 54%
    09:00 +30°C° 0 mm 2 mps 758 mmHg 52%
    10:00 +31°C° 0 mm 2 mps 758 mmHg 49%
    11:00 +33°C° 0 mm 3 mps 757 mmHg 47%
    12:00 +34°C° 0 mm 3 mps 757 mmHg 44%
    13:00 +35°C° 0 mm 4 mps 757 mmHg 41%
    14:00 +35°C° 0 mm 4 mps 757 mmHg 41%
    15:00 +35°C° 0 mm 4 mps 756 mmHg 41%
    16:00 +35°C° 0 mm 4 mps 756 mmHg 41%
    17:00 +33°C° 0.1 mm 4 mps 756 mmHg 48%
    18:00 +30°C° 0.1 mm 4 mps 756 mmHg 55%
    19:00 +28°C° 0.1 mm 3 mps 756 mmHg 62%
    20:00 +27°C° 0 mm 4 mps 757 mmHg 69%
    21:00 +25°C° 0 mm 4 mps 757 mmHg 77%
    22:00 +23°C° 0 mm 4 mps 757 mmHg 84%
    23:00 +23°C° 0 mm 4 mps 757 mmHg 84%

    22 June, Saturday

    Time Temperature Precipitation Wind Pressure Humidity
    00:00 +23°C° 0 mm 4 mps 757 mmHg 84%
    01:00 +22°C° 0 mm 4 mps 757 mmHg 84%
    02:00 +22°C° 0 mm 3 mps 757 mmHg 86%
    03:00 +22°C° 0 mm 3 mps 758 mmHg 89%
    04:00 +21°C° 0 mm 3 mps 758 mmHg 91%
    05:00 +22°C° 0 mm 3 mps 758 mmHg 88%
    06:00 +22°C° 0 mm 3 mps 759 mmHg 85%
    07:00 +24°C° 0 mm 3 mps 759 mmHg 81%
    08:00 +25°C° 0 mm 3 mps 759 mmHg 74%
    09:00 +27°C° 0 mm 3 mps 759 mmHg 67%
    10:00 +29°C° 0 mm 3 mps 759 mmHg 59%
    11:00 +29°C° 0 mm 3 mps 759 mmHg 59%
    12:00 +29°C° 0 mm 4 mps 759 mmHg 59%
    13:00 +29°C° 0 mm 4 mps 759 mmHg 59%
    14:00 +29°C° 0 mm 4 mps 759 mmHg 59%
    15:00 +29°C° 0 mm 3 mps 759 mmHg 60%
    16:00 +28°C° 0 mm 3 mps 758 mmHg 60%
    17:00 +28°C° 0 mm 3 mps 758 mmHg 63%
    18:00 +27°C° 0 mm 2 mps 759 mmHg 67%
    19:00 +26°C° 0 mm 2 mps 759 mmHg 70%
    20:00 +25°C° 0 mm 2 mps 759 mmHg 75%
    21:00 +24°C° 0 mm 2 mps 759 mmHg 79%
    22:00 +23°C° 0 mm 1 mps 760 mmHg 83%
    23:00 +23°C° 0 mm 2 mps 759 mmHg 82%
    Show more